This demonstration page uses our WeatherBlox Daily Observations layout. Learn more.

Left ArrowRight Arrow

39.29038, -76.61219

Hourly Observations for July 17, 2020

Temp ( °F °C ) Dew Point ( °F °C ) Humidity (%) Winds ( mph kmh ) Pressure ( in mb ) Visibility ( mi km ) Precip ( " mm )
12:54 am 00:54 Mostly Cloudy 77 25 69 20.6 77 77 VRB 7 11 30.15 1021 10 16 0.00 0.00
1:18 am 01:18 Partly Cloudy 77 25 69 20.6 77 77 S 6 9 30.15 1021 10 16 0.00 0.00
1:54 am 01:54 Cloudy 76 24.4 70 21.1 82 82 SSE 3 6 30.15 1021 10 16 0.00 0.00
2:33 am 02:33 Cloudy 76 24.4 69 20.6 79 79 Calm 30.13 1020 10 16 0.00 0.00
2:54 am 02:54 Cloudy 76 24.4 69 20.6 79 79 VRB 3 6 30.15 1021 10 16 0.00 0.00
3:54 am 03:54 Cloudy 76 24.4 70 21.1 82 82 S 3 6 30.14 1021 10 16 0.00 0.00
4:54 am 04:54 Cloudy 76 24.4 70 21.1 82 82 VRB 3 6 30.11 1020 10 16 0.00 0.00
5:54 am 05:54 Cloudy 75 23.9 70 21.1 84 84 SSW 3 6 30.12 1020 10 16 0.00 0.00
6:09 am 06:09 Cloudy 75 23.9 70 21.1 84 84 SSW 6 9 30.12 1020 10 16 0.00 0.00
6:11 am 06:11 Mostly Cloudy 76 24.4 70 21.1 82 82 S 6 9 30.12 1020 10 16 0.00 0.00
6:54 am 06:54 Mostly Cloudy 75 23.9 71 21.7 88 88 SSE 3 6 30.12 1020 10 16 0.01 0.25
7:54 am 07:54 Mostly Cloudy 77 25 71 21.7 82 82 SW 8 13 30.11 1020 8 13 0.00 0.00
8:54 am 08:54 Mostly Cloudy 81 27.2 72 22.2 74 74 SW 13 20 30.11 1020 10 16 0.00 0.00
9:54 am 09:54 Mostly Cloudy 83 28.3 71 21.7 67 67 SW 9 15 30.10 1019 10 16 0.00 0.00
10:54 am 10:54 Mostly Cloudy 87 30.6 72 22.2 61 61 WSW 7 11 30.10 1019 10 16 0.00 0.00
11:54 am 11:54 Mostly Cloudy 90 32.2 72 22.2 56 56 NW 8 13 30.08 1019 10 16 0.00 0.00
12:54 pm 12:54 Mostly Cloudy 92 33.3 72 22.2 52 52 VRB 7 11 30.09 1019 10 16 0.00 0.00
1:54 pm 13:54 Mostly Cloudy 93 33.9 72 22.2 50 50 NW 10 17 30.08 1019 10 16 0.00 0.00
2:54 pm 14:54 Mostly Cloudy 95 35 69 20.6 43 43 WNW 9 15 30.06 1018 10 16 0.00 0.00
3:54 pm 15:54 Mostly Cloudy 97 36.1 64 17.8 34 34 WNW 8 13 30.04 1017 10 16 0.00 0.00
4:54 pm 16:54 Mostly Cloudy 97 36.1 64 17.8 34 34 W 10 17 30.02 1017 10 16 0.00 0.00
5:54 pm 17:54 Mostly Cloudy 96 35.6 64 17.8 35 35 NNW 6 9 30.02 1017 10 16 0.00 0.00
6:54 pm 18:54 Mostly Cloudy 94 34.4 64 17.8 37 37 W 9 15 30.02 1017 10 16 0.00 0.00
7:54 pm 19:54 Mostly Cloudy 92 33.3 66 18.9 43 43 NW 3 6 30.02 1017 10 16 0.00 0.00
8:54 pm 20:54 Mostly Cloudy 87 30.6 72 22.2 61 61 S 6 9 30.04 1017 10 16 0.00 0.00
9:54 pm 21:54 Mostly Cloudy 85 29.4 75 23.9 72 72 SW 5 7 30.05 1018 10 16 0.00 0.00
10:54 pm 22:54 Partly Cloudy 84 28.9 74 23.3 72 72 SW 6 9 30.05 1018 10 16 0.00 0.00
11:54 pm 23:54 Partly Cloudy 82 27.8 73 22.8 74 74 W 3 6 30.06 1018 10 16 0.00 0.00

Powered by AerisWeather